www.pogodaiklimat.ru

Погода и климат >> Архив погоды >> Монголия >> Галуут


ПОГОДА в Галууте

  • Прогноз погоды в Галууте
  • Монитор погоды в Галууте

АРХИВ ПОГОДЫ в Галууте

Время (UTC), дата Ветер
(напр.,м/с)
 
Видим.   Явления Облачность Т
(С)
Тd
(С)
f
(%)
Тe
(С)
Тes
(С)
Комфортность P
(гПа)
Po
(гПа)
Тmin
(С)
Tmax
(С)
R
(мм)
R24
(мм)
S
(см)
06 10.07 ЮЗ 1 50 км {ливн. осадки} 8/5 600 м
[Cb cap Ac As]
+16.3 +8.6 60 +17 +23 1010.1 786.5
09 10.07 ЮЗ 2 50 км 8/5 1000 м
[Cb calv Ac cast]
+19.5 +7.4 45 +21 +23 комфорт 1005.9 785.4
12 10.07 СЗ 4
{11}
50 км 9/4 600 м
[Cb calv Ac cast Cc]
+17.4 +7.0 50 +17 +17 1007.6 785.3 +21.4 0.5
15 10.07 СЗ 2 н/о 10/10 600 м
[Sc]
+14.4 +8.7 69 +14 +14 1012.6 787.1
18 10.07 С 3 н/о 9/8 600 м
[Sc Ac As]
+13.6 +6.4 62 +13 +13 1012.6 786.6
21 10.07 СВ 3 н/о 9/1 600 м
[Sc Ac As Ci]
+10.9 +5.7 70 +9 +9 1014.9 786.5
00 11.07 штиль 0 50 км 8/1 1000 м
[Cu hum Ac und]
+15.5 +7.3 58 +15 +17 1012.0 787.4 +9.1
03 11.07 В 2 50 км 9/9 600 м
[Sc]
+19.4 +4.0 36 +20 +22 1008.7 787.5
06 11.07 Ю 2 50 км 6/6 1000 м
[Cb calv]
+23.0 +1.6 24 +22 +29 комфорт 1004.3 786.4
09 11.07 ЮЗ 2 50 км 9/9 600 м
[Cb calv]
+23.7 +1.3 23 +23 +24 комфорт 1002.6 785.5
12 11.07 В 4 50 км 9/4 1000 м
[Sc diur, vesp Ac cuf Ci sp]
+20.8 +3.9 33 +22 +22 комфорт 1005.6 786.0 +24.9
15 11.07 В 6 н/о 6/5 600 м
[Sc Ci fib]
+18.4 +3.8 38 +18 +18 1008.3 786.5
18 11.07 СЗ 1 н/о 4/4 600 м
[Sc]
+12.9 +5.4 60 +13 +13 1013.4 786.7
21 11.07 В 1 н/о 6/5 600 м
[Sc Ci fib]
+12.1 +5.8 65 +12 +12 1013.6 786.3
00 12.07 штиль 0 50 км 6/3 1000 м
[Cu hum Ac cast Cc]
+17.7 +7.5 51 +18 +20 1009.3 786.8 +10.7
03 12.07 Ю 5 50 км 5/3 1000 м
[Cu med, cong Cc]
+23.0 +1.8 25 +22 +27 комфорт 1004.5 786.6
06 12.07 Ю 6
{12}
50 км 9/9 600 м
[Cb cap]
+23.4 +1.6 24 +23 +23 комфорт 1003.1 785.7
09 12.07 С 6
{14}
50 км {гроза, ливн. осадки} 9/9 600 м
[Cb cap]
+21.6 +4.5 33 +22 +22 комфорт 1004.0 785.3
12 12.07 В 3
{13}
50 км {гроза, ливн. осадки} 9/8 600 м
[Frnb Ci]
+18.2 +5.9 44 +18 +19 1008.0 786.1 +25.9 0.4
15 12.07 В 2 н/о 5/3 600 м
[Sc Ac lent]
+14.7 +5.5 54 +15 +15 1012.0 786.9
18 12.07 СВ 2 н/о 9/8 600 м
[Sc Ac lent]
+14.1 +7.6 65 +14 +14 1013.3 787.5
21 12.07 СВ 1 н/о 9/9 600 м
[Sc Ac lent]
+14.5 +6.3 58 +15 +15 1011.3 786.2
00 13.07 штиль 0 50 км 9/3 600 м
[Sc Ac As Ci]
+15.8 +7.5 58 +16 +17 1010.7 786.6 +12.7
03 13.07 ЮЗ 4 50 км 8/3 1000 м
[Cu med, cong Cs]
+21.0 +6.6 39 +22 +28 комфорт 1005.2 785.8
06 13.07 Ю 8
{13}
50 км 8/8 600 м
[Cb calv]
+23.1 +4.9 31 +23 +24 комфорт 1001.6 784.4
09 13.07 З 7
{15}
50 км в посл. час гроза {ливн. осадки} 9/9 600 м
[Cb cap]
+17.3 +9.4 60 +16 +17 1005.1 783.3
12 13.07 Ю 6
{13}
50 км {гроза, ливн. осадки} 9/9 600 м
[Cb cap]
+14.0 +10.4 79 +12 +12 1011.4 785.9 +24.6 7
15 13.07 В 7
{11}
н/о дождь 10/0 600 м
[As op]
+12.8 +10.2 84 +10 +10 1014.9 787.8
18 13.07 ЮВ 4
{12}
н/о {дождь} 10/0 600 м
[As op]
+13.7 +9.3 75 +12 +12 1011.1 785.5
21 13.07 З 3 н/о слаб. дождь 10/0 600 м
[As op]
+12.2 +9.7 85 +11 +11 1011.0 784.4
00 14.07 штиль 0 4000 м дождь 10/0 600 м
[As op]
+11.4 +10.2 92 +11 +12 1012.2 784.7 +11.1 10
03 14.07 С 3 10 км слаб. дождь 10/0 600 м
[As op]
+12.3 +9.9 85 +11 +13 1009.9 783.6
06 14.07 СЗ 3 4000 м дождь 10/0 600 м
[As op]
+10.7 +9.2 90 +9 +12 1011.2 783.5
09 14.07 С 1 2000 м дождь 10/0 600 м
[As op]
+10.4 +8.4 87 +10 +12 1011.3 783.3
12 14.07 В 2 10 км слаб. дождь 10/0 600 м
[As op]
+11.1 +9.1 87 +10 +10 1009.8 782.7 +12.5 21
15 14.07 С 1 н/о слаб. дождь 10/0 600 м
[As op]
+10.8 +9.4 91 +10 +10 1009.7 782.4
18 14.07 штиль 0 н/о {дождь} 10/10 600 м
[Sc]
+10.3 +9.2 93 +10 +10 1008.0 780.7
21 14.07 СЗ 3 н/о 10/10 600 м
[Sc]
+9.8 +8.0 89 +7 +7 1008.2 780.5
00 15.07 штиль 0 50 км 5/1 1000 м
[Cu hum Ac trans]
+11.0 +8.6 85 +10 +13 1007.4 780.7 +8.8 5
03 15.07 ЮЗ 1 50 км 4/4 600 м
[Cb calv]
+14.9 +9.1 68 +15 +25 1004.3 781.0
06 15.07 ЮЗ 3 50 км 5/5 600 м
[Cb calv]
+18.6 +7.6 49 +19 +27 1000.4 780.5
09 15.07 З 3 50 км 6/5 600 м
[Cb calv Ci]
+19.6 +7.4 45 +21 +24 комфорт 999.5 780.4
12 15.07 З 5
{12}
50 км 8/4 600 м
[Sc Ac cuf Ci sp]
+16.7 +6.6 51 +16 +16 1004.0 782.0 +20.3
15 15.07 СВ 2 н/о 6/5 600 м
[Sc Ci fib]
+12.3 +9.6 84 +11 +11 1008.8 782.7
18 15.07 С 1 50 км 3/0 2000 м
[Ac lent Ci]
+9.7 +7.2 84 +9 +9 1011.2 782.8
21 15.07 СВ 1 50 км ясно +9.1 +6.8 86 +8 +8 1012.4 783.3
00 16.07 штиль 0 50 км 6/1 1000 м
[Cu hum Ac cast Ci sp]
+11.0 +8.1 82 +10 +13 1011.6 784.0 +8.0
03 16.07 штиль 0 50 км 8/3 1000 м
[Cu med, cong Cs]
+17.4 +6.7 49 +17 +29 опасность
простуды
1006.2 784.2
06 16.07 ЮЗ 3 50 км гроза без осадков 9/9 600 м
[Cb cap]
+18.9 +8.9 52 +20 +21 1004.5 783.9
09 16.07 З 6
{11}
50 км {гроза, ливн. осадки} 9/9 600 м
[Sc]
+16.1 +8.7 61 +15 +15 1007.5 784.3
12 16.07 В 4 50 км {гроза, ливн. осадки} 9/8 600 м
[Sc Ac As Ci]
+15.9 +9.0 64 +15 +15 1007.8 784.4 +19.9 0.0
15 16.07 В 1 н/о 8/0 2000 м
[Ac lent Cs]
+12.7 +9.7 82 +13 +13 1011.8 785.3
18 16.07 С 2 н/о 5/0 2000 м
[Ac lent Ci]
+10.2 +8.5 89 +9 +9 1014.7 785.8
21 16.07 штиль 0 н/о 4/0 2000 м
[Ac lent Ci]
+8.5 +7.2 92 +8 +8 1016.4 785.9
00 17.07 штиль 0 50 км 9/0
[Cs]
+12.6 +9.1 79 +12 +16 1013.4 786.5 +8.0

 

Местоположение метеостанции Галуут (Монголия): широта 46.70 долгота 100.13 высота над уровнем моря 2126 м.

В архиве по умолчанию представлена погода в Галууте за последнюю неделю. Архивные данные за месяц целиком и за предыдущие месяцы, начиная с января 2011 года, Вы можете получить, выбрав интересующий диапазон дат из раскрывающегося списка и нажав кнопку "Ввод!".


*Определитесь, кто Вы:
робот инопланетянин человек

Внимание! Время в таблицах - всемирное. Для получения местного времени необходимо прибавить поправку, которая равна 8 ч.

Смотрите также архив погоды в соседних городах и на ближайших метеорологических станциях:

Погода в Баянхонгоре (Монголия) (76 км)
Погода в Цэцэрлэге (Монголия) (131 км)
Погода в Баянбулаге (Монголия) (157 км)
Погода в Тариате (Монголия) (160 км)
Погода в Хужирте (Монголия) (201 км)
Погода в Арвайхээре (Монголия) (208 км)
Погода в Эрдэнэмандале (Монголия) (224 км)
Погода в Эрдэни (Монголия) (251 км)
Погода в Амарбуйантайане (Монголия) (257 км)
Погода в Тосонцэнгэле (Монголия) (268 км)

Пояснения к столбцам:

Ветер - указаны скорость ветра в м/с - средняя за 10 мин, порывы в срок и между сроками (в фигурных скобках) и направление, откуда дует ветер: С - северный, СВ - северо-восточный, В - восточный, ЮВ - юго-восточный, Ю - южный, ЮЗ - юго-западный, З - западный, СЗ - северо-западный.
Видимость - горизонтальная дальность видимости в метрах или километрах. При видимости от 1 до 10 км при отсутствии осадков обычно наблюдается дымка, при ухудшении видимости до 1 км и менее - туман. В сухую погоду видимость может ухудшаться дымом, пылью или мглою.
Явления - указаны атмосферные явления, наблюдавшиеся в срок или в последний час перед сроком; фигурными скобками обозначены явления, наблюдавшиеся между сроками (за 1-3 часа до срока); квадратными скобками обозначены град или гололедные отложения с указанием их диаметра в мм.
Облачность - указаны через наклонную черту общая и нижняя облачность в баллах и высота нижней границы облаков в метрах; квадратными скобками обозначены формы облаков: Ci - перистые, Cs - перисто-слоистые, Cc - перисто-кучевые, Ac - высококучевые, As - высокослоистые, Sc - слоисто-кучевые, Ns - слоисто-дождевые, Cu - кучевые, Cb - кучево-дождевые. Подробнее классификацию облаков см. в Атласе облаков (PDF).
T - Температура воздуха - температура, измеренная на высоте 2 м над землей.
Td - Температура точки росы - температура, при понижении до которой содержащийся в воздухе водяной пар достигнет насыщения.
f - Относительная влажность воздуха - влажноcть воздуха, измеренная на высоте 2 м над землей.
Te - Эффективная температура - температура, которую ощущает одетый по сезону человек в тени. Характеристика душности погоды. При расчете учитывается влияние влажности воздуха и скорости ветра на теплоощущения человека.
Tes - Эффективная температура на солнце - температура, которую ощущает человек, с поправкой на солнечный нагрев. Характеристика знойности погоды. Зависит от высоты солнца над горизонтом, облачности и скорости ветра. Ночью, в пасмурную погоду, а также при ветре 12 м/с и более поправка равна нулю.
P - Атмосферное давление - приведенное к уровню моря атмосферное давление.
Po - Атмосферное давление - измеренное на уровне метеостанции атмосферное давление.
Tmin - Минимальная температура - минимум температуры воздуха на высоте 2 м над землей.
Tmax - Максимальная температура - максимум температуры воздуха на высоте 2 м над землей.
R - Количество осадков - Количество выпавших осадков за период времени, мм. При наведении курсора мыши на число - период времени, за который выпало указанное количество осадков.
R24 - Количество осадков - Количество выпавших осадков за 24 часа, мм.
S - Снежный покров - Высота снежного покрова, см. При наведении курсора мыши на число - состояние снежного покрова и степень покрытия местности в баллах.